TimeEDT,TemperatureF,Dew PointF,Humidity,Sea Level PressureIn,VisibilityMPH,Wind Direction,Wind SpeedMPH,Gust SpeedMPH,PrecipitationIn,Events,Conditions,WindDirDegrees,DateUTC
12:12 AM,39.2,39.2,100,29.72,3.0,Calm,Calm,-,N/A,,Mostly Cloudy,0,2013-04-01 04:12:00
12:34 AM,39.2,39.2,100,29.72,2.5,Calm,Calm,-,N/A,,Mostly Cloudy,0,2013-04-01 04:34:00
12:51 AM,41.0,39.2,93,29.72,1.8,Calm,Calm,-,N/A,,Scattered Clouds,0,2013-04-01 04:51:00
12:53 AM,39.9,39.0,97,29.73,1.5,Calm,Calm,-,N/A,,Scattered Clouds,0,2013-04-01 04:53:00
12:56 AM,39.2,39.2,100,29.72,0.8,Calm,Calm,-,N/A,,Scattered Clouds,0,2013-04-01 04:56:00
1:14 AM,39.2,39.2,100,29.72,1.2,SW,3.5,-,N/A,,Scattered Clouds,220,2013-04-01 05:14:00
1:18 AM,39.2,39.2,100,29.72,1.2,Calm,Calm,-,N/A,,Mostly Cloudy,0,2013-04-01 05:18:00
1:21 AM,39.2,39.2,100,29.72,0.8,Calm,Calm,-,N/A,,Mostly Cloudy,0,2013-04-01 05:21:00
1:53 AM,39.0,39.0,100,29.73,0.5,Calm,Calm,-,N/A,Fog,Fog,0,2013-04-01 05:53:00
2:41 AM,39.2,37.4,93,29.73,1.2,Calm,Calm,-,N/A,,Mostly Cloudy,0,2013-04-01 06:41:00
2:45 AM,37.4,37.4,100,29.73,0.8,NNW,3.5,-,N/A,,Mostly Cloudy,340,2013-04-01 06:45:00
2:53 AM,37.9,37.0,97,29.74,0.5,Calm,Calm,-,N/A,Fog,Fog,0,2013-04-01 06:53:00
3:53 AM,39.0,39.0,100,29.73,0.2,Calm,Calm,-,N/A,Fog,Fog,0,2013-04-01 07:53:00
4:46 AM,39.2,39.2,100,29.70,1.2,Calm,Calm,-,N/A,,Overcast,0,2013-04-01 08:46:00
4:53 AM,39.0,39.0,100,29.71,2.0,SW,3.5,-,N/A,,Overcast,220,2013-04-01 08:53:00
5:02 AM,39.2,39.2,100,29.71,3.0,SW,3.5,-,N/A,,Overcast,220,2013-04-01 09:02:00
6:53 AM,41.0,39.0,93,29.71,6.0,Calm,Calm,-,N/A,,Overcast,0,2013-04-01 10:53:00
8:00 AM,42.8,41.0,93,29.71,6.0,SW,6.9,-,0.00,Rain,Light Rain,220,2013-04-01 12:00:00
8:53 AM,48.0,43.0,83,29.72,8.0,SW,6.9,-,0.00,,Clear,220,2013-04-01 12:53:00
9:53 AM,48.9,43.0,80,29.72,7.0,West,3.5,-,0.00,,Overcast,270,2013-04-01 13:53:00
10:53 AM,46.9,37.9,71,29.75,9.0,West,13.8,20.7,0.01,Rain,Light Rain,260,2013-04-01 14:53:00
11:53 AM,48.9,35.1,59,29.76,10.0,West,12.7,26.5,0.00,,Scattered Clouds,270,2013-04-01 15:53:00
12:53 PM,50.0,30.0,46,29.77,10.0,West,12.7,18.4,N/A,,Scattered Clouds,270,2013-04-01 16:53:00
1:53 PM,48.0,28.0,46,29.79,10.0,WNW,13.8,26.5,N/A,,Overcast,290,2013-04-01 17:53:00
3:53 PM,46.0,25.0,44,29.81,10.0,West,8.1,19.6,N/A,,Overcast,280,2013-04-01 19:53:00
4:53 PM,48.0,18.0,30,29.82,10.0,West,11.5,20.7,N/A,,Partly Cloudy,280,2013-04-01 20:53:00
5:53 PM,46.0,12.0,25,29.84,10.0,WNW,12.7,27.6,N/A,,Scattered Clouds,290,2013-04-01 21:53:00
7:53 PM,39.9,12.9,33,29.90,10.0,NW,9.2,-,N/A,,Clear,310,2013-04-01 23:53:00
8:53 PM,37.9,12.0,35,29.94,10.0,NW,8.1,18.4,N/A,,Clear,320,2013-04-02 00:53:00
9:53 PM,36.0,12.9,39,29.97,10.0,WNW,4.6,-,N/A,,Clear,300,2013-04-02 01:53:00
10:53 PM,34.0,14.0,44,29.99,10.0,NW,3.5,-,N/A,,Clear,310,2013-04-02 02:53:00
11:53 PM,34.0,12.0,40,29.98,10.0,NW,5.8,-,N/A,,Clear,310,2013-04-02 03:53:00